Aviation Digital Data Service (ADDS)

Output produced by METARs form (2340 UTC 19 October 2017)
found at http://www.aviationweather.gov/adds/metars/
 
OPLA 192325Z 00000KT 4000 FU NSC 23/19 Q1009/A29.79
TAF OPLA 192145Z 2000/2106 31007KT 5000 HZ NSC TX35/2010Z TN20/2000Z 
     TEMPO 2001/2005 VRB02KT 1200 FU FM 201500 26003KT 4000 FU NSC 
     TEMPO 2101/2105 00000KT 1000 FU
       
TAF OPBW 192205Z 2000/2018 05005KT 4000 FU NSC TN19/2001Z TX37/2010Z 
     PROB30 
     TEMPO 2001/2005 00000KT 1500 BR NSC
       
TAF OPBW 192205Z 2000/2018 05005KT 4000 FU NSC TN19/2001Z TX37/2010Z 
     PROB30 
     TEMPO 2001/2005 00000KT 1500 BR NSC
       
TAF OPDG 192205Z 2000/2018 18005KT 4000 FU NSC TN16/2001Z TX36/2010Z 
     FM200600 13005KT 5000 HZ NSC
       
TAF OPGD 191600Z 1918/2018 VRB03KT 2000 FU NSC 
     TEMPO 2000/2004 00000KT 0800 FG VV/// 
     FM200500 23006KT 4000 HZ NSC
       
OPKC 192325Z 25004KT 5000 FU NSC 25/23 Q1008 NOSIG
TAF OPKC 192200Z 2000/2106 23008KT 6000 NSC 
     TEMPO 2001/2005 27005KT 3000 FU NSC 
     FM201600 VRB03KT 5000 HZ NSC 
     TEMPO 2101/2105 25005KT 2500 FU SCT020
       
OPLA 192325Z 00000KT 4000 FU NSC 23/19 Q1009/A29.79
TAF OPLA 192145Z 2000/2106 31007KT 5000 HZ NSC TX35/2010Z TN20/2000Z 
     TEMPO 2001/2005 VRB02KT 1200 FU FM 201500 26003KT 4000 FU NSC 
     TEMPO 2101/2105 00000KT 1000 FU
       
TAF OPMT 192205Z 2000/2018 05005KT 4000 FU NSC TN20/2001Z TX35/2010Z 
     PROB30 
     TEMPO 2001/2005 00000KT 1500 BR NSC
       
OPNH 192200Z 00000KT 4000 FU NSC 23/17 Q1006 NOSIG
TAF OPNH 192200Z 2000/2106 18005KT 6000 NSC 
     TEMPO 2000/2004 VRB03KT 3000 FU NSC 
     FM201400 VRB03KT 4000 HZ NSC 
     TEMPO 2100/2104 VRB03KT 3000 FU NSC
       
OPPS 192300Z 23004KT 3000 HZ SKC 20/11 Q1010
TAF OPPS 192105Z 2000/2106 05010KT 3600 HZ FEW040?
     TEMPO 2001/2005 2500 
     TEMPO 2011/2014 2500 SCT100 
     TEMPO 2101/2115 3000
       
TAF OPRK 192205Z 2000/2018 05005KT 4000 FU NSC TN18/2001Z TX39/2010Z 
     PROB30 
     TEMPO 2001/2005 00000KT 3000 FU NSC
       
OPRN 192300Z 00000KT 4000 HZ NSC 19/13 Q1012.0/29.89
TAF OPRN 192130Z 2000/2106 12010KT 4000 HZ NSC 
     BECMG 2002/2004 00000KT 3000 HZ NSC 
     TEMPO 2009/2012 15010KT 4000 HZ FEW030
       
OPSK 192100Z 21002KT 3000 HZ NSC 22/18 Q1006 NOSIG
TAF OPSK 191600Z 1918/2018 VRB03KT 3000 FU NSC 
     TEMPO 2000/2004 00000KT 1000 BR NSC 
     FM200500 18006KT 5000 HZ NSC 
       
OPST 192300Z 05004KT 4000 FU NSC 20/16 Q1010 NOSIG RH81
TAF OPBW 192205Z 2000/2018 05005KT 4000 FU NSC TN19/2001Z TX37/2010Z 
     PROB30 
     TEMPO 2001/2005 00000KT 1500 BR NSC
       
TAF OPDG 192205Z 2000/2018 18005KT 4000 FU NSC TN16/2001Z TX36/2010Z 
     FM200600 13005KT 5000 HZ NSC
       
TAF OPGD 191600Z 1918/2018 VRB03KT 2000 FU NSC 
     TEMPO 2000/2004 00000KT 0800 FG VV/// 
     FM200500 23006KT 4000 HZ NSC
       
OPKC 192325Z 25004KT 5000 FU NSC 25/23 Q1008 NOSIG
TAF OPKC 192200Z 2000/2106 23008KT 6000 NSC 
     TEMPO 2001/2005 27005KT 3000 FU NSC 
     FM201600 VRB03KT 5000 HZ NSC 
     TEMPO 2101/2105 25005KT 2500 FU SCT020
       
OPLA 192325Z 00000KT 4000 FU NSC 23/19 Q1009/A29.79
TAF OPLA 192145Z 2000/2106 31007KT 5000 HZ NSC TX35/2010Z TN20/2000Z 
     TEMPO 2001/2005 VRB02KT 1200 FU FM 201500 26003KT 4000 FU NSC 
     TEMPO 2101/2105 00000KT 1000 FU
       
TAF OPMT 192205Z 2000/2018 05005KT 4000 FU NSC TN20/2001Z TX35/2010Z 
     PROB30 
     TEMPO 2001/2005 00000KT 1500 BR NSC
       
OPNH 192200Z 00000KT 4000 FU NSC 23/17 Q1006 NOSIG
TAF OPNH 192200Z 2000/2106 18005KT 6000 NSC 
     TEMPO 2000/2004 VRB03KT 3000 FU NSC 
     FM201400 VRB03KT 4000 HZ NSC 
     TEMPO 2100/2104 VRB03KT 3000 FU NSC
       
OPPS 192300Z 23004KT 3000 HZ SKC 20/11 Q1010
TAF OPPS 192105Z 2000/2106 05010KT 3600 HZ FEW040?
     TEMPO 2001/2005 2500 
     TEMPO 2011/2014 2500 SCT100 
     TEMPO 2101/2115 3000
       
TAF OPRK 192205Z 2000/2018 05005KT 4000 FU NSC TN18/2001Z TX39/2010Z 
     PROB30 
     TEMPO 2001/2005 00000KT 3000 FU NSC
       
OPRN 192300Z 00000KT 4000 HZ NSC 19/13 Q1012.0/29.89
TAF OPRN 192130Z 2000/2106 12010KT 4000 HZ NSC 
     BECMG 2002/2004 00000KT 3000 HZ NSC 
     TEMPO 2009/2012 15010KT 4000 HZ FEW030
       
OPSK 192100Z 21002KT 3000 HZ NSC 22/18 Q1006 NOSIG
TAF OPSK 191600Z 1918/2018 VRB03KT 3000 FU NSC 
     TEMPO 2000/2004 00000KT 1000 BR NSC 
     FM200500 18006KT 5000 HZ NSC 
       
OPST 192300Z 05004KT 4000 FU NSC 20/16 Q1010 NOSIG RH81
OPRN 192300Z 00000KT 4000 HZ NSC 19/13 Q1012.0/29.89
TAF OPRN 192130Z 2000/2106 12010KT 4000 HZ NSC 
     BECMG 2002/2004 00000KT 3000 HZ NSC 
     TEMPO 2009/2012 15010KT 4000 HZ FEW030
       
TAF OPBW 192205Z 2000/2018 05005KT 4000 FU NSC TN19/2001Z TX37/2010Z 
     PROB30 
     TEMPO 2001/2005 00000KT 1500 BR NSC
       
TAF OPDG 192205Z 2000/2018 18005KT 4000 FU NSC TN16/2001Z TX36/2010Z 
     FM200600 13005KT 5000 HZ NSC
       
TAF OPGD 191600Z 1918/2018 VRB03KT 2000 FU NSC 
     TEMPO 2000/2004 00000KT 0800 FG VV/// 
     FM200500 23006KT 4000 HZ NSC
       
OPKC 192325Z 25004KT 5000 FU NSC 25/23 Q1008 NOSIG
TAF OPKC 192200Z 2000/2106 23008KT 6000 NSC 
     TEMPO 2001/2005 27005KT 3000 FU NSC 
     FM201600 VRB03KT 5000 HZ NSC 
     TEMPO 2101/2105 25005KT 2500 FU SCT020
       
OPLA 192325Z 00000KT 4000 FU NSC 23/19 Q1009/A29.79
TAF OPLA 192145Z 2000/2106 31007KT 5000 HZ NSC TX35/2010Z TN20/2000Z 
     TEMPO 2001/2005 VRB02KT 1200 FU FM 201500 26003KT 4000 FU NSC 
     TEMPO 2101/2105 00000KT 1000 FU
       
TAF OPMT 192205Z 2000/2018 05005KT 4000 FU NSC TN20/2001Z TX35/2010Z 
     PROB30 
     TEMPO 2001/2005 00000KT 1500 BR NSC
       
OPNH 192200Z 00000KT 4000 FU NSC 23/17 Q1006 NOSIG
TAF OPNH 192200Z 2000/2106 18005KT 6000 NSC 
     TEMPO 2000/2004 VRB03KT 3000 FU NSC 
     FM201400 VRB03KT 4000 HZ NSC 
     TEMPO 2100/2104 VRB03KT 3000 FU NSC
       
OPPS 192300Z 23004KT 3000 HZ SKC 20/11 Q1010
TAF OPPS 192105Z 2000/2106 05010KT 3600 HZ FEW040?
     TEMPO 2001/2005 2500 
     TEMPO 2011/2014 2500 SCT100 
     TEMPO 2101/2115 3000
       
TAF OPRK 192205Z 2000/2018 05005KT 4000 FU NSC TN18/2001Z TX39/2010Z 
     PROB30 
     TEMPO 2001/2005 00000KT 3000 FU NSC
       
OPRN 192300Z 00000KT 4000 HZ NSC 19/13 Q1012.0/29.89
TAF OPRN 192130Z 2000/2106 12010KT 4000 HZ NSC 
     BECMG 2002/2004 00000KT 3000 HZ NSC 
     TEMPO 2009/2012 15010KT 4000 HZ FEW030
       
OPSK 192100Z 21002KT 3000 HZ NSC 22/18 Q1006 NOSIG
TAF OPSK 191600Z 1918/2018 VRB03KT 3000 FU NSC 
     TEMPO 2000/2004 00000KT 1000 BR NSC 
     FM200500 18006KT 5000 HZ NSC 
       
OPST 192300Z 05004KT 4000 FU NSC 20/16 Q1010 NOSIG RH81
TAF OPBW 192205Z 2000/2018 05005KT 4000 FU NSC TN19/2001Z TX37/2010Z 
     PROB30 
     TEMPO 2001/2005 00000KT 1500 BR NSC
       
TAF OPDG 192205Z 2000/2018 18005KT 4000 FU NSC TN16/2001Z TX36/2010Z 
     FM200600 13005KT 5000 HZ NSC
       
TAF OPGD 191600Z 1918/2018 VRB03KT 2000 FU NSC 
     TEMPO 2000/2004 00000KT 0800 FG VV/// 
     FM200500 23006KT 4000 HZ NSC
       
OPKC 192325Z 25004KT 5000 FU NSC 25/23 Q1008 NOSIG
TAF OPKC 192200Z 2000/2106 23008KT 6000 NSC 
     TEMPO 2001/2005 27005KT 3000 FU NSC 
     FM201600 VRB03KT 5000 HZ NSC 
     TEMPO 2101/2105 25005KT 2500 FU SCT020
       
OPLA 192325Z 00000KT 4000 FU NSC 23/19 Q1009/A29.79
TAF OPLA 192145Z 2000/2106 31007KT 5000 HZ NSC TX35/2010Z TN20/2000Z 
     TEMPO 2001/2005 VRB02KT 1200 FU FM 201500 26003KT 4000 FU NSC 
     TEMPO 2101/2105 00000KT 1000 FU
       
TAF OPMT 192205Z 2000/2018 05005KT 4000 FU NSC TN20/2001Z TX35/2010Z 
     PROB30 
     TEMPO 2001/2005 00000KT 1500 BR NSC
       
OPNH 192200Z 00000KT 4000 FU NSC 23/17 Q1006 NOSIG
TAF OPNH 192200Z 2000/2106 18005KT 6000 NSC 
     TEMPO 2000/2004 VRB03KT 3000 FU NSC 
     FM201400 VRB03KT 4000 HZ NSC 
     TEMPO 2100/2104 VRB03KT 3000 FU NSC
       
OPPS 192300Z 23004KT 3000 HZ SKC 20/11 Q1010
TAF OPPS 192105Z 2000/2106 05010KT 3600 HZ FEW040?
     TEMPO 2001/2005 2500 
     TEMPO 2011/2014 2500 SCT100 
     TEMPO 2101/2115 3000
       
TAF OPRK 192205Z 2000/2018 05005KT 4000 FU NSC TN18/2001Z TX39/2010Z 
     PROB30 
     TEMPO 2001/2005 00000KT 3000 FU NSC
       
OPRN 192300Z 00000KT 4000 HZ NSC 19/13 Q1012.0/29.89
TAF OPRN 192130Z 2000/2106 12010KT 4000 HZ NSC 
     BECMG 2002/2004 00000KT 3000 HZ NSC 
     TEMPO 2009/2012 15010KT 4000 HZ FEW030
       
OPSK 192100Z 21002KT 3000 HZ NSC 22/18 Q1006 NOSIG
TAF OPSK 191600Z 1918/2018 VRB03KT 3000 FU NSC 
     TEMPO 2000/2004 00000KT 1000 BR NSC 
     FM200500 18006KT 5000 HZ NSC 
       
OPST 192300Z 05004KT 4000 FU NSC 20/16 Q1010 NOSIG RH81
TAF OPDG 192205Z 2000/2018 18005KT 4000 FU NSC TN16/2001Z TX36/2010Z 
     FM200600 13005KT 5000 HZ NSC
       
TAF OPGD 191600Z 1918/2018 VRB03KT 2000 FU NSC 
     TEMPO 2000/2004 00000KT 0800 FG VV/// 
     FM200500 23006KT 4000 HZ NSC
       
OPKC 192325Z 25004KT 5000 FU NSC 25/23 Q1008 NOSIG
TAF OPKC 192200Z 2000/2106 23008KT 6000 NSC 
     TEMPO 2001/2005 27005KT 3000 FU NSC 
     FM201600 VRB03KT 5000 HZ NSC 
     TEMPO 2101/2105 25005KT 2500 FU SCT020
       
TAF OPMT 192205Z 2000/2018 05005KT 4000 FU NSC TN20/2001Z TX35/2010Z 
     PROB30 
     TEMPO 2001/2005 00000KT 1500 BR NSC
       
OPNH 192200Z 00000KT 4000 FU NSC 23/17 Q1006 NOSIG
TAF OPNH 192200Z 2000/2106 18005KT 6000 NSC 
     TEMPO 2000/2004 VRB03KT 3000 FU NSC 
     FM201400 VRB03KT 4000 HZ NSC 
     TEMPO 2100/2104 VRB03KT 3000 FU NSC
       
OPPS 192300Z 23004KT 3000 HZ SKC 20/11 Q1010
TAF OPPS 192105Z 2000/2106 05010KT 3600 HZ FEW040?
     TEMPO 2001/2005 2500 
     TEMPO 2011/2014 2500 SCT100 
     TEMPO 2101/2115 3000
       
TAF OPRK 192205Z 2000/2018 05005KT 4000 FU NSC TN18/2001Z TX39/2010Z 
     PROB30 
     TEMPO 2001/2005 00000KT 3000 FU NSC
       
OPSK 192100Z 21002KT 3000 HZ NSC 22/18 Q1006 NOSIG
TAF OPSK 191600Z 1918/2018 VRB03KT 3000 FU NSC 
     TEMPO 2000/2004 00000KT 1000 BR NSC 
     FM200500 18006KT 5000 HZ NSC